Location: Bun
(42.9667°N, 0.1500°W)
Time: 18:41:16
(UTC+00:00)

Daily predictions for brighter satellites

Satellite Brightness Start Highest point End
(mag) Time Altitude Azimuth Time Altitude Azimuth Time Altitude Azimuth
STARLINK-1064 3.7 18:10:08 10° SW 18:14:12 63° SE 18:18:19 10° ENE
ADEOS Rocket 3.8 18:10:07 10° NNE 18:17:36 47° E 18:24:45 10° S
STARLINK-1041 3.7 18:15:04 10° SW 18:19:10 69° SE 18:23:18 10° ENE
Cosmos 2227 Rocket 4.1 18:19:24 10° NNE 18:20:33 11° NE 18:21:42 10° NE
Cosmos 1656 Rocket 3.6 18:17:09 10° SSW 18:22:39 79° ESE 18:28:16 10° NNE
STARLINK-1038 3.6 18:20:01 10° SW 18:24:08 75° SE 18:28:16 10° ENE
STARLINK-1046 3.6 18:24:59 10° SW 18:29:07 82° SE 18:33:16 10° NE
Cosmos 2285 Rocket 4.1 18:23:36 10° NNW 18:30:01 88° WSW 18:36:26 10° SSE
H-2A R/B 3.3 18:26:08 10° ESE 18:30:17 23° ENE 18:34:28 10° NNE
STARLINK-1039 3.6 18:30:00 10° SW 18:34:08 89° SE 18:38:17 10° NE
STARLINK-1045 3.6 18:34:57 10° SW 18:39:06 85° NNW 18:43:08 11° NE
Cosmos 1470 Rocket 4.1 18:35:45 10° SSW 18:40:03 63° W 18:44:27 10° N
COSMOS 2487 2.3 18:36:51 10° NNW 18:40:19 73° ENE 18:43:44 10° SSE
STARLINK-43 3.9 18:40:30 10° NW 18:44:02 41° NNE 18:46:22 18° E
STARLINK-1050 3.7 18:39:59 10° WSW 18:44:07 76° NW 18:47:59 12° NE
HJ-1C 3.8 18:41:59 10° SE 18:45:04 39° ENE 18:48:11 10° N
Lacrosse 5 rocket 3.5 18:42:30 10° NNW 18:45:33 17° NNE 18:48:11 12° NE
Cosmos 468 Rocket 4.0 18:40:32 10° S 18:45:44 62° ESE 18:50:59 10° NNE
Timation 2 Rocket 4.3 18:39:44 10° NNW 18:46:30 54° ENE 18:53:11 10° SE
Okean 1 3.6 18:43:52 10° N 18:47:43 44° ENE 18:51:30 10° SSE
Okean 1-7 3.1 18:44:33 10° N 18:48:49 53° E 18:53:04 10° SSE
STARLINK-1055 3.8 18:44:57 10° WSW 18:49:05 71° NW 18:52:45 13° NE
Cosmos 2219 4.4 18:45:08 10° N 18:49:40 23° NE 18:52:15 17° E
Cosmos 192 4.3 18:45:23 10° S 18:50:14 68° ESE 18:55:07 10° NNE
Lacrosse 5 1.9 18:46:05 10° SSW 18:51:05 62° SE 18:55:38 13° NE
COSMO-SKYMED 1 4.2 18:47:33 10° N 18:51:33 37° WNW 18:55:33 10° SW
Cosmos 405 2.9 18:50:03 10° N 18:53:35 65° E 18:57:06 10° SSE
STARLINK-1022 3.9 18:49:58 10° WSW 18:54:04 65° NNW 18:57:31 14° NE
Meteor 1-14 Rocket 4.2 18:51:01 10° S 18:56:25 59° E 19:01:53 10° NNE
Meteor 2-4 Rocket 4.4 18:52:34 10° N 18:57:59 36° ENE 19:03:23 10° SE
Gbstr 26 Del rocket 3.4 18:54:23 10° WSW 18:58:20 61° NNW 19:02:07 15° NE
STARLINK-1042 4.0 18:55:00 10° WSW 18:59:04 61° NNW 19:02:20 16° NE
Cosmos 2369 Rocket 4.2 18:55:14 10° WSW 19:00:03 28° NW 19:04:57 10° N
Cosmos 1602 3.6 18:59:18 10° S 19:03:09 72° E 19:07:00 10° NNE
STARLINK-1056 4.1 18:59:59 10° WSW 19:04:03 56° NNW 19:07:06 17° NE
Cosmos 2242 Rocket 4.5 18:59:37 10° NNW 19:04:05 54° W 19:08:32 10° S
USA 186 3.7 19:05:54 13° NNE 19:05:54 13° NNE 19:06:26 10° NNE
Cosmos 44 Rocket 3.2 19:00:23 10° NNW 19:05:08 69° NE 19:08:48 17° SE
Cosmos 841 Rocket 3.8 19:00:57 10° S 19:05:44 41° ESE 19:10:34 10° NE
Cosmos 1898 Rocket 3.4 19:00:49 10° NNW 19:06:02 81° ENE 19:11:14 10° SSE
Cosmos 1763 Rocket 3.4 19:00:52 10° SSW 19:06:04 76° ESE 19:11:22 10° NNE
Cosmos 1703 Rocket 3.6 19:01:39 10° N 19:06:09 83° W 19:10:37 10° S
SJ 16-02 1.2 19:02:47 10° NNW 19:07:13 79° ENE 19:11:35 10° SSE
STARLINK-1054 4.2 19:05:00 10° WSW 19:09:02 52° NNW 19:11:52 18° NE
ARGOS 3.6 19:04:37 13° SE 19:09:07 41° ENE 19:14:10 10° N
Cosmos 1939 Rocket 4.1 19:05:18 10° S 19:09:17 45° W 19:13:16 10° NNW
Resurs 01 Rocket 3.8 19:11:23 11° NE 19:11:23 11° NE 19:11:51 10° NNE
Meteor 1-19 Rocket 4.2 19:04:39 10° N 19:10:25 68° ENE 19:15:58 10° SSE
Cosmos 2208 Rocket 4.1 19:07:33 10° S 19:12:47 53° ESE 19:18:00 10° NNE
Cosmos 1869 Rocket 3.4 19:08:25 10° S 19:12:48 77° E 19:17:10 10° N
GPS 2-04 Rocket1 4.2 19:09:46 10° WSW 19:13:25 28° S 19:15:11 21° SE
ARGOS Delta rocket 4.3 19:13:10 31° E 19:13:50 32° ENE 19:17:50 10° N
Meteor 1-11 Rocket 4.5 19:09:14 10° SE 19:13:50 27° E 19:18:24 10° NNE
STARLINK-1062 4.4 19:10:01 10° WSW 19:14:02 49° NNW 19:16:39 20° NE
SPOT 3 Rocket 4.3 19:13:10 27° E 19:14:34 32° ENE 19:19:09 10° N
STARLINK-1053 4.5 19:15:03 10° WSW 19:19:02 46° NNW 19:21:27 21° NE
CENTAUR R/B 4.1 19:12:31 10° NNW 19:19:08 29° NNE 19:22:39 22° ENE
CZ-4 R/B 4.1 19:17:31 10° SSW 19:20:49 23° W 19:24:07 10° NW
STARLINK-80 4.0 19:19:05 10° NW 19:22:43 40° NNE 19:23:11 38° NE
CZ-2C R/B 3.4 19:18:39 11° SSE 19:24:07 55° ENE 19:29:37 10° N
Cosmos 858 Rocket 4.4 19:21:23 10° NNW 19:26:38 90° E 19:31:32 12° SSE
Cosmos 1570 Rocket 3.9 19:21:51 10° SSW 19:27:05 84° ESE 19:32:24 10° NNE
FREGAT/IRIS 4.4 19:29:02 20° N 19:29:02 20° N 19:30:03 10° N
SJ-6B 3.0 19:29:19 45° NE 19:29:19 45° NE 19:32:33 10° N
Ariane Rocket 3.1 19:26:37 10° S 19:31:43 78° WSW 19:36:51 10° NNW
Cosmos 540 Rocket 3.4 19:27:11 10° S 19:32:13 62° ESE 19:37:19 10° NNE
Okean 3 3.4 19:29:16 10° N 19:33:25 55° E 19:33:29 55° E
ATLAS 3B R/B 4.1 19:29:01 10° NNW 19:33:49 20° NNE 19:35:31 18° NE
BREEZE-M DEB (TANK) 4.1 19:32:01 10° WNW 19:35:18 63° SSW 19:40:13 23° SE
NOSS 8 (F) 4.5 19:35:54 10° SW 19:39:03 66° WNW 19:39:03 66° WNW
SL-08 RB Rocket 3.8 19:42:32 53° ENE 19:42:32 53° ENE 19:46:37 10° N
APEX 4.0 19:38:09 10° SSW 19:43:01 88° ESE 19:49:13 10° NNE
Meteor 1-13 Rocket 4.3 19:37:19 10° N 19:43:05 57° ENE 19:44:36 44° SE
Cosmos 2297 Rocket 2.6 19:41:22 10° NNW 19:46:47 43° ENE 19:46:50 43° ENE
CZ-2C R/B 3.6 19:44:08 10° NNE 19:48:48 67° ESE 19:53:31 10° S
Nadezhda 4 Rocket 4.3 19:45:24 10° NNW 19:51:41 70° W 19:57:57 10° S
Cosmos 1515 4.1 19:48:07 10° NNW 19:51:52 61° W 19:52:28 52° SW
Genesis I 3.8 19:49:05 10° NNW 19:52:02 49° NNW 19:52:02 49° NNW
Cosmos 1937 Rocket 4.2 19:49:55 10° NNW 19:55:00 52° WSW 19:59:19 14° S
ATLAS 2AS CENTAUR R/B 3.7 19:48:42 10° S 19:53:45 32° SE 19:53:45 32° SE
Meteor 1-5 Rocket 4.0 19:52:05 10° S 19:57:33 85° E 20:03:15 10° NNE
Cosmos 2026 Rocket 3.9 19:51:34 10° N 19:57:40 61° E 19:58:21 57° ESE
Cosmos 2221 Rocket 4.1 20:00:25 10° NNW 20:04:51 58° W 20:06:07 41° SSW
Cosmos 2227 Rocket 2.5 20:00:25 10° NNW 20:05:17 50° NE 20:05:17 50° NE
USA 238 DEB 3.8 20:00:51 10° NNW 20:08:03 68° NE 20:09:21 58° E
USA 238 3.8 20:00:57 10° NNW 20:08:08 68° NE 20:09:23 58° E
H-2A R/B 2.8 20:04:04 10° S 20:09:18 53° W 20:14:39 10° NNW
Cosmos 372 Rocket 4.1 20:14:11 10° NNW 20:19:10 73° WNW 20:19:10 73° WNW
Lacrosse 5 rocket 3.1 20:21:15 10° NW 20:23:51 30° NNW 20:23:51 30° NNW
MetOp-A 4.3 20:28:10 68° WNW 20:28:10 68° WNW 20:33:03 10° NNW
Cosmos 1428 Rocket 4.4 20:27:11 10° N 20:33:08 79° WNW 20:33:08 79° WNW
Cosmos 2219 3.5 20:28:36 10° NNW 20:34:13 62° WSW 20:34:13 62° WSW
Lacrosse 5 3.3 20:29:48 10° W 20:34:22 32° NNW 20:34:52 31° NNW
Cosmos 1634 Rocket 4.5 20:35:59 10° SSW 20:42:11 58° W 20:48:27 10° N
USA 234 4.2 20:42:41 34° NNE 20:42:41 34° NNE 20:48:22 10° NW
H-2A R/B 4.2 20:32:17 10° WSW 20:43:57 24° SSW 20:44:20 24° SSW
Resurs 01 Rocket 4.0 20:48:56 17° NNW 20:48:56 17° NNW 20:50:03 10° NNW
NOSS 3-2 (A) 4.1 20:50:35 10° NW 20:58:12 72° WSW 20:58:23 71° SW
NOSS 3-2 (C) 4.1 20:54:31 10° NW 21:01:19 74° NNW 21:01:19 74° NNW
CENTAUR R/B 3.3 21:02:53 10° NW 21:09:51 69° NNW 21:09:51 69° NNW
ATLAS 3B R/B 3.9 21:19:04 10° NNW 21:22:47 35° NNW 21:22:47 35° NNW
Cosmos 2297 Rocket 4.2 21:25:48 10° NW 21:28:41 24° WNW 21:28:41 24° WNW
